FW0869 Weather Reports


Display with metric or nautical units.
time (UTC)temp
F
wind
direction
speed
MPH
gust
MPH
rain 1hr
in
rain 24hr
in
rain mn
in
humidity
%
barometer
mb
20260505211433 38 340 5.0 12.0 0.02 0.36 0.20 91 1014.1
20260505211332 38 20 4.0 11.0 0.02 0.36 0.20 91 1014.1
20260505211233 38 348 4.0 11.0 0.02 0.36 0.20 91 1014.1
20260505211157 38 30 4.0 8.0 0.02 0.36 0.20 91 1014.1
20260505211132 38 11 4.0 8.0 0.02 0.36 0.20 92 1014.1
20260505211032 38 17 4.0 8.0 0.02 0.36 0.20 92 1014.1
20260505210930 38 13 4.0 9.0 0.02 0.36 0.20 92 1014.1
20260505210828 38 5 4.0 9.0 0.02 0.36 0.20 92 1014.1
20260505210725 38 347 4.0 9.0 0.02 0.36 0.20 92 1014.1
20260505210656 38 0 4.0 9.0 0.02 0.36 0.20 92 1014.1
20260505210625 38 342 5.0 9.0 0.02 0.36 0.20 92 1014.1
20260505210523 38 344 5.0 9.0 0.02 0.36 0.20 91 1014.1
20260505210419 38 38 4.0 9.0 0.02 0.36 0.20 91 1014.1
20260505210317 38 5 5.0 9.0 0.02 0.36 0.20 92 1014.1
20260505210217 38 340 5.0 9.0 0.02 0.36 0.20 92 1014.1
20260505210156 38 5 5.0 9.0 0.02 0.36 0.20 92 1014.1
20260505210117 38 21 5.0 9.0 0.02 0.36 0.20 92 1014.1
20260505210020 38 40 5.0 9.0 0.02 0.36 0.20 92 1014.1
20260505205811 38 355 5.0 9.0 0.02 0.36 0.20 92 1014.1
20260505205757 38 12 5.0 9.0 0.03 0.36 0.20 92 1014.1
20260505205611 38 11 5.0 9.0 0.03 0.36 0.20 91 1014.1
20260505205510 38 11 5.0 9.0 0.03 0.36 0.20 91 1014.1
20260505205405 38 350 5.0 9.0 0.03 0.36 0.20 91 1014.1
20260505205305 38 342 5.0 9.0 0.03 0.36 0.20 91 1014.1
20260505205205 38 11 5.0 9.0 0.03 0.36 0.20 91 1014.2
20260505205144 38 33 5.0 9.0 0.03 0.36 0.20 91 1014.2
20260505205105 38 34 5.0 9.0 0.03 0.36 0.20 91 1014.2
20260505205008 38 26 5.0 9.0 0.02 0.35 0.20 91 1014.2
20260505204758 38 57 5.0 11.0 0.02 0.35 0.19 92 1014.3
20260505204659 38 42 6.0 12.0 0.02 0.35 0.19 92 1014.3
20260505204638 38 36 6.0 12.0 0.02 0.35 0.19 92 1014.3
20260505204605 38 31 6.0 12.0 0.02 0.35 0.19 92 1014.3
20260505204354 38 0 5.0 12.0 0.02 0.35 0.19 92 1014.5
20260505204253 38 9 5.0 12.0 0.02 0.35 0.19 92 1014.5
20260505204152 38 350 5.0 12.0 0.02 0.35 0.19 92 1014.5
20260505204132 38 44 5.0 12.0 0.02 0.35 0.19 91 1014.5
20260505204053 38 5 6.0 12.0 0.02 0.35 0.19 91 1014.5
20260505203953 38 33 6.0 12.0 0.02 0.35 0.19 91 1014.6
20260505203847 38 18 6.0 12.0 0.02 0.35 0.19 91 1014.7
20260505203747 38 30 6.0 11.0 0.02 0.35 0.19 92 1014.7
20260505203646 38 38 6.0 11.0 0.02 0.35 0.19 92 1014.7
20260505203625 38 29 6.0 11.0 0.02 0.35 0.19 92 1014.7
20260505203547 38 355 6.0 11.0 0.02 0.35 0.19 92 1014.7
20260505203449 38 28 6.0 11.0 0.02 0.35 0.19 91 1014.6
20260505203242 38 44 6.0 11.0 0.02 0.35 0.19 91 1014.7
20260505203140 38 34 6.0 11.0 0.02 0.35 0.19 91 1014.7
20260505203120 38 49 6.0 11.0 0.02 0.35 0.19 91 1014.7
20260505203040 38 32 6.0 10.0 0.02 0.35 0.19 91 1014.7
20260505202940 38 40 6.0 10.0 0.02 0.35 0.19 91 1014.8
20260505202835 38 40 5.0 9.0 0.02 0.35 0.19 91 1014.7
20260505202736 38 43 6.0 9.0 0.02 0.35 0.19 91 1014.8
20260505202635 38 31 6.0 9.0 0.02 0.35 0.19 91 1014.8
20260505202614 38 55 6.0 9.0 0.02 0.35 0.19 91 1014.8
20260505202541 38 13 6.0 9.0 0.02 0.35 0.19 91 1014.8
20260505202356 38 60 5.0 9.0 0.02 0.35 0.19 91 1014.9
20260505202134 38 25 5.0 11.0 0.02 0.35 0.19 91 1015.1
20260505201928 38 24 5.0 11.0 0.01 0.34 0.18 91 1015.1
20260505201824 38 40 5.0 11.0 0.01 0.34 0.18 91 1015.1
20260505201723 38 34 5.0 11.0 0.01 0.34 0.18 91 1015.2
20260505201602 38 5 5.0 11.0 0.01 0.34 0.18 92 1015.1
20260505201523 38 27 5.0 11.0 0.01 0.34 0.18 92 1015.1
20260505201422 38 346 5.0 11.0 0.01 0.34 0.18 92 1015.2
20260505201323 38 323 5.0 11.0 0.01 0.34 0.18 91 1015.1
20260505201117 38 33 5.0 11.0 0.01 0.34 0.18 92 1015.1
20260505201055 38 42 5.0 11.0 0.01 0.34 0.18 91 1015.1
20260505201018 38 312 5.0 11.0 0.01 0.34 0.18 91 1015.1
20260505200917 38 5 6.0 12.0 0.01 0.34 0.18 91 1015.2
20260505200811 38 345 6.0 12.0 0.01 0.34 0.18 91 1015.2
20260505200712 38 15 6.0 12.0 0.01 0.34 0.18 91 1015.2
20260505200622 38 44 6.0 12.0 0.01 0.34 0.18 91 1015.2
20260505200616 38 355 6.0 12.0 0.01 0.34 0.18 91 1015.2
20260505200410 38 5 6.0 12.0 0.01 0.34 0.18 91 1015.2
20260505200305 38 45 6.0 12.0 0.01 0.34 0.18 91 1015.2
20260505200206 38 32 6.0 12.0 0.01 0.34 0.18 91 1015.2
20260505200105 38 26 6.0 12.0 0.01 0.34 0.18 91 1015.1
20260505200044 38 60 6.0 12.0 0.01 0.34 0.18 91 1014.9
20260505200005 38 55 6.0 12.0 0.01 0.34 0.18 91 1014.9
20260505195906 38 34 5.0 11.0 0.01 0.34 0.18 91 1014.9
20260505195800 38 9 5.0 11.0 0.01 0.34 0.18 90 1014.9
20260505195659 38 65 5.0 11.0 0.00 0.33 0.18 90 1015.1
20260505195611 38 49 5.0 10.0 0.00 0.33 0.17 91 1015.1
20260505195603 38 63 5.0 11.0 0.00 0.33 0.17 91 1015.1
20260505195358 38 34 6.0 11.0 0.00 0.33 0.17 90 1015.1
20260505195253 38 41 6.0 11.0 0.00 0.33 0.17 90 1015.1
20260505195200 38 78 6.0 11.0 0.00 0.33 0.17 90 1015.1
20260505195031 38 26 6.0 11.0 0.00 0.33 0.17 90 1015.1
20260505194953 38 5 6.0 11.0 0.00 0.33 0.17 90 1015.1
20260505194852 38 13 6.0 11.0 0.00 0.33 0.17 90 1015.1
20260505194753 38 59 6.0 11.0 0.00 0.33 0.17 90 1015.1
20260505194700 38 61 7.0 11.0 0.00 0.33 0.17 90 1015.1
20260505194526 38 50 6.0 11.0 0.00 0.33 0.17 90 1015.1
20260505194454 38 37 6.0 11.0 0.00 0.33 0.17 90 1015.1
20260505194353 38 13 7.0 11.0 0.00 0.33 0.17 90 1015.1
20260505194251 38 66 7.0 11.0 0.00 0.33 0.17 90 1015.1
20260505194150 38 107 7.0 11.0 0.00 0.33 0.17 90 1015.1
20260505194051 38 67 7.0 11.0 0.00 0.33 0.17 89 1015.1
20260505194021 38 45 7.0 11.0 0.00 0.33 0.17 89 1015.1
20260505193952 38 67 7.0 11.0 0.00 0.33 0.17 89 1015.1
20260505193850 38 53 7.0 11.0 0.00 0.33 0.17 90 1015.1
20260505193756 38 65 7.0 11.0 0.00 0.33 0.17 90 1015.1
20260505193549 38 69 6.0 11.0 0.00 0.33 0.17 89 1015.1
20260505193517 38 57 6.0 11.0 0.00 0.33 0.17 89 1015.1
20260505193450 38 42 6.0 11.0 0.00 0.33 0.17 89 1015.1
20260505193350 39 36 6.0 10.0 0.00 0.33 0.17 89 1015.1
20260505193248 39 42 6.0 10.0 0.00 0.33 0.17 89 1015.1
20260505193150 39 67 6.0 10.0 0.00 0.33 0.17 89 1015.2
20260505193001 39 51 5.0 9.0 0.00 0.33 0.17 90 1015.1
20260505192941 39 51 5.0 9.0 0.00 0.33 0.17 90 1015.2
20260505192841 39 63 5.0 9.0 0.00 0.33 0.17 90 1015.2
20260505192741 39 22 5.0 9.0 0.00 0.33 0.17 90 1015.1
20260505192653 39 63 4.0 9.0 0.00 0.33 0.17 90 1015.1
20260505192646 39 61 4.0 9.0 0.00 0.33 0.17 90 1014.9
20260505192335 39 65 4.0 8.0 0.00 0.34 0.17 90 1014.9
20260505192234 39 62 4.0 8.0 0.00 0.34 0.17 90 1014.9
20260505192135 39 86 5.0 9.0 0.00 0.34 0.17 90 1014.9
20260505192029 39 57 5.0 9.0 0.00 0.34 0.17 90 1014.9
20260505191950 39 53 5.0 9.0 0.00 0.34 0.17 90 1014.9
20260505191929 39 52 5.0 9.0 0.00 0.34 0.17 90 1014.9
20260505191836 39 74 5.0 9.0 0.00 0.34 0.17 90 1014.9
20260505191628 39 70 5.0 9.0 0.00 0.34 0.17 90 1014.9
20260505191522 39 111 5.0 9.0 0.00 0.34 0.17 90 1014.9
20260505191443 39 73 5.0 9.0 0.00 0.34 0.17 90 1014.9
20260505191422 39 40 5.0 9.0 0.00 0.34 0.17 90 1014.9
20260505191330 39 94 5.0 9.0 0.00 0.34 0.17 90 1014.9
20260505191124 39 78 4.0 8.0 0.00 0.34 0.17 90 1014.9
20260505190938 39 45 4.0 8.0 0.00 0.34 0.17 90 1015.1
20260505190917 39 65 4.0 8.0 0.01 0.34 0.17 90 1015.1
20260505190817 39 67 5.0 8.0 0.01 0.34 0.17 90 1015.1
20260505190718 39 43 4.0 9.0 0.01 0.34 0.17 90 1015.1
20260505190616 39 48 4.0 9.0 0.01 0.34 0.17 90 1015.1
20260505190510 39 46 4.0 9.0 0.01 0.34 0.17 90 1014.9
20260505190411 39 67 4.0 9.0 0.01 0.34 0.17 90 1015.1
20260505190311 39 67 4.0 9.0 0.01 0.34 0.17 90 1015.1
20260505190212 39 103 4.0 9.0 0.01 0.34 0.17 90 1015.1
20260505190110 39 34 4.0 9.0 0.01 0.34 0.17 90 1014.9
20260505190006 39 43 4.0 9.0 0.01 0.34 0.17 91 1015.1
20260505185925 39 54 4.0 9.0 0.01 0.34 0.17 91 1015.1
20260505185908 39 65 4.0 9.0 0.01 0.34 0.17 91 1015.1
20260505185814 39 26 4.0 9.0 0.01 0.34 0.17 92 1015.1
20260505185604 39 351 4.0 9.0 0.01 0.34 0.17 91 1015.1
20260505185511 39 26 4.0 9.0 0.01 0.34 0.17 91 1015.1
20260505185503 39 43 4.0 9.0 0.01 0.34 0.17 91 1015.1
20260505185259 39 88 4.0 9.0 0.01 0.34 0.17 91 1015.1
20260505185206 39 57 4.0 9.0 0.01 0.34 0.17 91 1015.2
20260505184954 39 57 4.0 6.0 0.01 0.34 0.17 91 1015.2
20260505184914 39 42 4.0 6.0 0.01 0.34 0.17 91 1015.2
20260505184854 39 42 4.0 6.0 0.01 0.34 0.17 91 1015.2
20260505184755 39 23 4.0 6.0 0.01 0.34 0.17 91 1015.2
20260505184657 39 34 4.0 7.0 0.01 0.34 0.17 91 1015.2
20260505184553 39 61 4.0 7.0 0.01 0.34 0.17 91 1015.3
20260505184512 39 51 4.0 7.0 0.01 0.34 0.17 92 1015.3
20260505184506 39 68 4.0 7.0 0.01 0.34 0.17 92 1015.3
20260505184047 38 49 4.0 7.0 0.01 0.34 0.17 92 1015.3
20260505183902 38 53 4.0 7.0 0.01 0.34 0.17 91 1015.4
20260505183847 38 46 4.0 7.0 0.01 0.34 0.17 91 1015.4
20260505183641 38 44 3.0 6.0 0.01 0.34 0.17 92 1015.5
20260505183541 38 56 3.0 5.0 0.01 0.34 0.17 91 1015.5
20260505183434 38 30 3.0 5.0 0.01 0.34 0.17 91 1015.5
20260505183357 38 46 3.0 5.0 0.01 0.34 0.17 91 1015.5
20260505183336 38 47 3.0 5.0 0.01 0.34 0.17 91 1015.6
20260505183235 38 42 3.0 5.0 0.01 0.34 0.17 91 1015.5
20260505183135 38 46 3.0 5.0 0.01 0.34 0.17 92 1015.6
20260505183036 38 46 3.0 6.0 0.01 0.34 0.17 92 1015.6
20260505182829 38 46 3.0 6.0 0.01 0.34 0.17 92 1015.6
20260505182728 38 46 3.0 6.0 0.01 0.34 0.17 92 1015.8
20260505182629 38 46 3.0 6.0 0.01 0.34 0.17 92 1015.6
20260505182528 38 46 3.0 6.0 0.01 0.34 0.17 92 1015.6
20260505182423 38 46 3.0 6.0 0.01 0.34 0.17 92 1015.6
20260505182343 38 45 3.0 6.0 0.01 0.34 0.17 92 1015.6
20260505182322 38 28 3.0 6.0 0.01 0.34 0.17 92 1015.6
20260505182222 38 24 3.0 6.0 0.02 0.34 0.17 92 1015.6
20260505182123 38 47 3.0 6.0 0.02 0.34 0.17 92 1015.8
20260505182023 38 46 2.0 6.0 0.02 0.34 0.17 92 1015.6
20260505181917 38 9 2.0 5.0 0.02 0.34 0.17 92 1015.6
20260505181818 38 9 2.0 5.0 0.02 0.34 0.17 92 1015.8
20260505181717 38 17 2.0 5.0 0.02 0.34 0.17 92 1015.6
20260505181617 38 355 2.0 5.0 0.02 0.34 0.17 92 1015.8
20260505181516 38 32 2.0 5.0 0.02 0.34 0.17 92 1015.8
20260505181410 38 26 2.0 5.0 0.02 0.34 0.17 93 1015.9
20260505181317 38 26 2.0 5.0 0.02 0.34 0.17 93 1015.8
20260505181111 38 26 2.0 5.0 0.02 0.34 0.17 93 1015.8
20260505181011 38 5 2.0 5.0 0.02 0.34 0.17 93 1015.8
20260505180917 38 348 2.0 5.0 0.01 0.33 0.17 93 1015.8
20260505180910 38 34 2.0 5.0 0.01 0.33 0.16 93 1015.8
20260505180711 38 0 3.0 5.0 0.01 0.33 0.16 93 1015.8
20260505180505 38 355 3.0 5.0 0.01 0.33 0.16 92 1015.8
20260505180400 37 36 3.0 5.0 0.01 0.33 0.16 92 1015.8
20260505180320 37 348 3.0 5.0 0.01 0.33 0.16 92 1015.8
20260505180302 37 348 3.0 5.0 0.01 0.33 0.16 92 1015.8
20260505180159 37 74 3.0 5.0 0.01 0.33 0.16 92 1015.8
20260505180058 37 74 3.0 5.0 0.01 0.33 0.16 92 1015.8
20260505175959 37 83 4.0 5.0 0.01 0.33 0.16 92 1015.8
20260505175852 37 71 4.0 5.0 0.01 0.33 0.16 92 1015.8
20260505175813 37 71 4.0 5.0 0.01 0.33 0.16 92 1015.9
20260505175753 37 71 4.0 5.0 0.01 0.33 0.16 92 1015.8
20260505175653 37 46 4.0 5.0 0.01 0.33 0.16 92 1015.8
20260505175553 37 40 4.0 5.0 0.01 0.33 0.16 92 1015.9
20260505175453 37 52 4.0 5.0 0.01 0.33 0.16 92 1015.9
20260505175347 37 36 4.0 6.0 0.01 0.33 0.16 92 1015.9
20260505175308 37 324 4.0 6.0 0.01 0.33 0.16 92 1015.9
20260505175248 37 40 3.0 6.0 0.01 0.33 0.16 92 1015.8
20260505175202 37 40 3.0 6.0 0.01 0.33 0.16 92 1015.8
20260505174802 37 25 3.0 6.0 0.01 0.33 0.16 92 1015.9
20260505174742 37 51 3.0 6.0 0.01 0.33 0.16 92 1015.9
20260505174641 37 51 3.0 6.0 0.01 0.33 0.16 92 1015.9
20260505174540 37 51 3.0 6.0 0.01 0.33 0.16 92 1015.9
20260505174440 38 40 3.0 6.0 0.01 0.33 0.16 93 1016.0
20260505174337 38 72 3.0 8.0 0.01 0.33 0.16 93 1016.0
20260505174256 37 41 3.0 8.0 0.01 0.33 0.16 93 1016.0
20260505174237 37 22 3.0 8.0 0.01 0.33 0.16 93 1016.0
20260505174138 37 17 3.0 8.0 0.01 0.33 0.16 93 1016.1
20260505174037 37 41 4.0 8.0 0.01 0.33 0.16 93 1016.1
20260505173935 37 31 4.0 8.0 0.01 0.33 0.16 92 1016.0
20260505173832 37 12 4.0 9.0 0.01 0.33 0.16 92 1016.1
20260505173728 37 12 5.0 9.0 0.01 0.33 0.16 92 1016.1
20260505173628 37 28 5.0 9.0 0.01 0.33 0.16 92 1016.1
20260505173530 37 348 5.0 9.0 0.01 0.33 0.16 92 1016.2
20260505173429 37 13 5.0 9.0 0.01 0.33 0.16 92 1016.1
20260505173324 37 30 4.0 9.0 0.01 0.33 0.16 92 1016.1
20260505173244 37 56 4.0 9.0 0.01 0.33 0.16 92 1016.2
20260505173223 37 27 4.0 9.0 0.01 0.33 0.16 92 1016.2
20260505173130 37 32 4.0 9.0 0.01 0.33 0.16 92 1016.1
20260505172923 37 36 3.0 8.0 0.01 0.33 0.16 92 1016.2
20260505172844 37 18 3.0 8.0 0.01 0.33 0.16 92 1016.1
20260505172716 37 46 3.0 8.0 0.01 0.33 0.16 92 1016.2
20260505172617 37 58 3.0 8.0 0.01 0.33 0.16 92 1016.2
20260505172517 38 78 3.0 8.0 0.01 0.33 0.16 93 1016.1
20260505172422 38 61 3.0 8.0 0.01 0.33 0.16 93 1016.2
20260505172232 38 49 3.0 8.0 0.00 0.32 0.15 93 1016.4
20260505172214 38 45 3.0 8.0 0.00 0.32 0.15 93 1016.4
20260505172114 38 15 3.0 9.0 0.00 0.32 0.15 93 1016.4
20260505172013 38 22 3.0 9.0 0.00 0.32 0.15 93 1016.4
20260505171911 37 349 4.0 9.0 0.00 0.32 0.15 93 1016.4
20260505171804 37 355 4.0 9.0 0.00 0.32 0.15 93 1016.4
20260505171704 37 348 4.0 9.0 0.00 0.32 0.15 93 1016.4
20260505171605 37 355 4.0 9.0 0.00 0.32 0.15 93 1016.4
20260505171505 37 29 4.0 9.0 0.00 0.32 0.15 93 1016.4
20260505171408 37 0 4.0 9.0 0.00 0.32 0.15 92 1016.4
20260505171220 37 5 4.0 9.0 0.00 0.32 0.15 93 1016.4
20260505171159 37 10 4.0 9.0 0.00 0.32 0.15 93 1016.4
20260505171058 37 46 4.0 8.0 0.00 0.32 0.15 93 1016.2
20260505170959 37 53 4.0 8.0 0.00 0.32 0.15 93 1016.2
20260505170858 37 36 4.0 8.0 0.00 0.32 0.15 93 1016.4
20260505170752 37 28 4.0 8.0 0.00 0.32 0.15 93 1016.4
20260505170714 38 28 4.0 8.0 0.00 0.32 0.15 93 1016.4
20260505170652 38 28 4.0 8.0 0.00 0.32 0.15 93 1016.2
20260505170600 38 54 4.0 8.0 0.00 0.32 0.15 93 1016.2
20260505170352 38 20 4.0 8.0 0.00 0.32 0.15 93 1016.4
20260505170315 38 13 4.0 8.0 0.00 0.32 0.15 94 1016.2
20260505170147 38 71 4.0 8.0 0.00 0.32 0.15 94 1016.4
20260505170046 37 25 4.0 8.0 0.00 0.32 0.15 93 1016.2
20260505165947 37 59 4.0 8.0 0.00 0.32 0.15 93 1016.2
20260505165846 37 20 4.0 8.0 0.00 0.32 0.15 93 1016.1
20260505165740 37 19 4.0 8.0 0.00 0.32 0.15 93 1016.2
20260505165702 37 71 4.0 8.0 0.00 0.32 0.15 93 1016.2
20260505165640 37 30 4.0 8.0 0.00 0.32 0.15 93 1016.1
20260505165548 37 65 4.0 7.0 0.00 0.32 0.15 93 1016.2
20260505165340 37 71 4.0 8.0 0.00 0.32 0.15 93 1016.2
20260505165234 37 21 3.0 8.0 0.00 0.32 0.15 93 1016.2
20260505165157 37 74 3.0 8.0 0.00 0.32 0.15 93 1016.2
20260505165134 37 49 3.0 8.0 0.00 0.32 0.15 93 1016.2
20260505165035 37 49 3.0 8.0 0.00 0.32 0.15 93 1016.4
20260505164941 37 49 3.0 8.0 0.00 0.32 0.15 93 1016.2
20260505164757 37 35 3.0 8.0 0.00 0.32 0.15 93 1016.4
20260505164630 37 51 3.0 8.0 0.00 0.32 0.15 93 1016.4
20260505164537 37 60 3.0 8.0 0.00 0.32 0.15 94 1016.4
20260505164328 37 18 3.0 8.0 0.00 0.32 0.15 94 1016.4
20260505164223 37 350 3.0 8.0 0.00 0.32 0.15 94 1016.2
20260505164148 37 350 3.0 8.0 0.00 0.32 0.15 94 1016.4
20260505164122 37 5 3.0 8.0 0.00 0.32 0.15 93 1016.4
20260505164023 37 5 3.0 8.0 0.00 0.32 0.15 93 1016.4
20260505163923 37 41 4.0 8.0 0.00 0.32 0.15 93 1016.4
20260505163822 37 344 4.0 8.0 0.00 0.32 0.15 93 1016.4
20260505163718 37 331 3.0 8.0 0.00 0.32 0.15 93 1016.4
20260505163648 37 17 3.0 8.0 0.00 0.32 0.15 93 1016.2
20260505163632 37 12 3.0 8.0 0.00 0.32 0.15 94 1016.2
20260505163316 37 30 3.0 7.0 0.00 0.32 0.15 94 1016.4
20260505163211 37 30 3.0 7.0 0.01 0.32 0.15 94 1016.4
20260505163148 37 30 3.0 7.0 0.01 0.32 0.15 94 1016.5
20260505163111 37 32 3.0 7.0 0.01 0.32 0.15 94 1016.5
20260505163011 37 34 3.0 7.0 0.01 0.32 0.15 94 1016.4
20260505162910 37 34 3.0 7.0 0.01 0.32 0.15 94 1016.5
20260505162902 37 34 3.0 7.0 0.01 0.32 0.15 94 1016.5
20260505162609 37 5 4.0 7.0 0.01 0.32 0.15 94 1016.6
20260505162509 37 5 4.0 7.0 0.01 0.32 0.15 94 1016.4
20260505162411 37 5 4.0 8.0 0.01 0.32 0.15 93 1016.5
20260505162200 37 32 4.0 8.0 0.01 0.32 0.15 93 1016.5
20260505162149 37 32 4.0 8.0 0.01 0.32 0.15 93 1016.6
20260505162113 37 32 4.0 8.0 0.01 0.32 0.15 94 1016.6
20260505161800 37 34 5.0 9.0 0.01 0.32 0.15 94 1016.6
20260505161648 37 31 5.0 9.0 0.01 0.32 0.15 94 1016.6
20260505161554 37 19 5.0 9.0 0.01 0.32 0.15 94 1016.6
20260505161453 37 14 5.0 9.0 0.01 0.32 0.15 94 1016.6
20260505161352 37 24 5.0 9.0 0.01 0.32 0.15 94 1016.6
20260505161252 37 31 5.0 9.0 0.01 0.32 0.15 94 1016.6
20260505161154 37 0 5.0 9.0 0.01 0.32 0.15 94 1016.6
20260505160947 37 21 4.0 9.0 0.01 0.32 0.15 94 1016.6
20260505160904 37 21 4.0 9.0 0.01 0.32 0.15 94 1016.5
20260505160643 37 22 4.0 9.0 0.01 0.32 0.15 93 1016.5
20260505160543 37 22 4.0 9.0 0.01 0.32 0.15 93 1016.5
20260505160444 37 22 4.0 9.0 0.01 0.32 0.15 93 1016.5
20260505160343 37 22 4.0 9.0 0.01 0.32 0.15 93 1016.6
20260505160239 37 22 4.0 9.0 0.01 0.32 0.15 94 1016.6
20260505160149 37 23 4.0 9.0 0.01 0.32 0.15 94 1016.5
20260505160134 37 66 4.0 9.0 0.01 0.32 0.15 94 1016.5
20260505153310 36 20 3.0 8.0 0.02 0.32 0.15 94 1016.8
20260505153210 36 19 3.0 8.0 0.01 0.31 0.15 94 1016.8
20260505153148 36 20 3.0 8.0 0.01 0.31 0.14 94 1016.8
20260505153119 36 19 3.0 8.0 0.01 0.31 0.14 94 1016.8
20260505152910 36 20 3.0 8.0 0.01 0.31 0.14 94 1016.8
20260505152827 36 20 3.0 7.0 0.01 0.31 0.14 94 1016.8
20260505152713 36 19 3.0 7.0 0.01 0.31 0.14 94 1016.8
20260505152508 36 309 3.0 6.0 0.01 0.31 0.14 94 1016.8
20260505152415 36 0 3.0 6.0 0.01 0.31 0.14 94 1016.7
20260505152210 36 29 3.0 6.0 0.01 0.31 0.14 94 1016.8
20260505152147 36 327 3.0 6.0 0.01 0.31 0.14 94 1016.8
20260505152108 36 335 3.0 6.0 0.01 0.31 0.14 94 1016.8
20260505152008 36 327 3.0 6.0 0.01 0.31 0.14 94 1016.8
20260505151905 36 325 3.0 6.0 0.01 0.31 0.14 94 1016.8
20260505151805 36 355 3.0 6.0 0.01 0.31 0.14 94 1016.8
20260505151704 36 303 3.0 6.0 0.01 0.31 0.14 94 1016.8
20260505151642 36 303 4.0 6.0 0.01 0.31 0.14 94 1016.8
20260505151604 36 303 4.0 6.0 0.01 0.31 0.14 94 1016.8
20260505151509 35 355 3.0 7.0 0.01 0.31 0.14 93 1017.0
20260505151300 36 340 3.0 7.0 0.01 0.31 0.14 94 1016.8
20260505151250 36 338 3.0 7.0 0.01 0.31 0.14 94 1016.8
20260505151102 35 15 3.0 7.0 0.01 0.31 0.14 94 1016.8
20260505150850 35 350 3.0 7.0 0.01 0.31 0.14 93 1016.7
20260505150751 35 355 3.0 7.0 0.01 0.31 0.14 93 1016.8
20260505150659 35 303 3.0 7.0 0.01 0.31 0.14 93 1016.8
20260505150652 35 303 3.0 8.0 0.01 0.31 0.14 93 1016.8
20260505150515 36 350 4.0 9.0 0.01 0.31 0.14 94 1016.8
20260505150149 36 350 4.0 9.0 0.02 0.31 0.14 94 1017.0
20260505140642 34 108 5.0 10.0 0.02 0.30 0.13 93 1017.0
20260505140602 34 348 5.0 10.0 0.02 0.30 0.13 93 1017.0
20260505140502 34 331 6.0 10.0 0.02 0.30 0.13 93 1017.0
20260505140404 34 351 5.0 10.0 0.02 0.30 0.13 93 1016.8
20260505140157 34 346 5.0 10.0 0.01 0.29 0.13 94 1016.8
20260505140136 34 340 5.0 10.0 0.01 0.29 0.12 94 1017.0
20260505130232 34 328 6.0 13.0 0.01 0.28 0.11 93 1016.6
20260505130225 34 325 6.0 13.0 0.01 0.28 0.11 93 1016.5
20260505124821 34 328 5.0 12.0 0.02 0.28 0.11 93 1016.1
20260505124727 34 321 5.0 12.0 0.02 0.28 0.11 93 1016.1
20260505124720 34 342 4.0 12.0 0.02 0.28 0.11 93 1016.0
20260505124520 34 350 4.0 12.0 0.02 0.28 0.11 93 1016.0
20260505124421 34 325 4.0 12.0 0.02 0.28 0.11 93 1016.0
20260505124320 34 346 3.0 9.0 0.02 0.28 0.11 93 1016.0
20260505124221 34 329 3.0 9.0 0.02 0.28 0.11 93 1016.0
20260505124113 34 15 3.0 9.0 0.02 0.28 0.11 93 1015.9
20260505124021 34 329 3.0 9.0 0.02 0.28 0.11 93 1015.9
20260505123921 34 5 3.0 9.0 0.02 0.28 0.11 93 1016.0
20260505123820 34 331 3.0 9.0 0.02 0.28 0.11 93 1016.0
20260505123721 34 0 3.0 9.0 0.02 0.28 0.11 93 1016.0
20260505123614 34 336 3.0 9.0 0.02 0.28 0.11 93 1016.0
20260505123527 34 0 4.0 9.0 0.02 0.28 0.11 93 1016.0
20260505123320 34 319 4.0 9.0 0.01 0.27 0.11 93 1015.9
20260505123220 34 340 4.0 9.0 0.01 0.27 0.10 93 1015.9
20260505123114 34 351 5.0 9.0 0.01 0.27 0.10 93 1015.8
20260505123020 34 9 5.0 9.0 0.01 0.27 0.10 93 1015.8
20260505122916 34 341 5.0 9.0 0.02 0.27 0.10 93 1015.8
20260505122816 34 313 5.0 9.0 0.02 0.27 0.10 93 1015.8
20260505122728 34 335 5.0 10.0 0.02 0.27 0.10 93 1015.8
20260505122721 34 331 5.0 11.0 0.02 0.27 0.10 93 1015.8
20260505122516 34 319 5.0 11.0 0.02 0.27 0.10 93 1015.9
20260505122417 34 338 5.0 11.0 0.02 0.27 0.10 93 1015.9
20260505122317 34 344 5.0 11.0 0.02 0.27 0.10 93 1015.9
20260505122217 34 355 5.0 11.0 0.02 0.27 0.10 93 1015.9
20260505122116 34 316 5.0 11.0 0.02 0.27 0.10 93 1015.9
20260505122016 34 327 5.0 11.0 0.02 0.27 0.10 93 1015.9
20260505121916 34 326 5.0 11.0 0.02 0.27 0.10 93 1015.9
20260505121823 34 334 5.0 11.0 0.03 0.27 0.10 93 1015.9
20260505121616 34 343 6.0 10.0 0.03 0.27 0.10 93 1015.9
20260505121516 34 19 6.0 10.0 0.03 0.27 0.10 93 1015.9
20260505121416 34 355 6.0 10.0 0.03 0.27 0.10 92 1015.9
20260505121316 34 342 6.0 10.0 0.03 0.27 0.10 92 1015.9
20260505121216 34 323 6.0 10.0 0.03 0.27 0.10 93 1015.8
20260505121117 34 296 6.0 10.0 0.04 0.27 0.10 93 1015.8
20260505121011 34 305 6.0 10.0 0.04 0.27 0.10 93 1015.9
20260505120912 34 311 6.0 12.0 0.04 0.27 0.10 92 1015.8
20260505120812 34 355 6.0 12.0 0.04 0.27 0.10 92 1015.8
20260505120711 35 309 5.0 12.0 0.04 0.27 0.10 92 1015.8
20260505120613 35 301 5.0 12.0 0.04 0.27 0.10 92 1015.8
20260505120513 35 327 5.0 12.0 0.04 0.27 0.10 92 1015.8
20260505120412 35 334 5.0 12.0 0.04 0.27 0.10 92 1015.8
20260505120319 35 333 5.0 12.0 0.04 0.27 0.10 92 1015.6
20260505120112 35 320 5.0 12.0 0.04 0.27 0.10 92 1015.8
20260505120013 35 336 5.0 12.0 0.04 0.27 0.10 92 1015.8
20260505115912 35 346 5.0 12.0 0.04 0.27 0.10 92 1015.8
20260505115812 35 0 5.0 12.0 0.04 0.27 0.10 92 1015.8
20260505115712 35 9 5.0 12.0 0.04 0.27 0.10 92 1015.8
20260505115619 35 340 6.0 12.0 0.05 0.27 0.10 92 1015.6
20260505115412 35 5 6.0 12.0 0.05 0.27 0.10 92 1015.8
20260505115312 35 355 6.0 12.0 0.04 0.26 0.09 92 1015.8
20260505115214 35 325 6.0 12.0 0.04 0.26 0.09 92 1015.8
20260505115112 35 331 6.0 12.0 0.04 0.26 0.09 92 1015.8
20260505115108 35 329 6.0 12.0 0.04 0.26 0.09 92 1015.8
20260505115015 35 329 6.0 12.0 0.04 0.26 0.09 92 1015.8
20260505114808 35 350 6.0 12.0 0.04 0.26 0.09 92 1015.6
20260505114719 35 311 6.0 12.0 0.04 0.26 0.09 92 1015.6
20260505114712 35 340 6.0 12.0 0.04 0.26 0.09 92 1015.5
20260505114509 35 24 6.0 12.0 0.04 0.26 0.09 92 1015.5
20260505114409 35 5 6.0 14.0 0.04 0.26 0.09 92 1015.4
20260505114309 35 345 6.0 14.0 0.04 0.26 0.09 92 1015.5
20260505114219 35 0 6.0 14.0 0.04 0.26 0.09 92 1015.5
20260505114212 35 9 6.0 16.0 0.04 0.26 0.09 92 1015.5
20260505114009 35 311 7.0 16.0 0.04 0.26 0.09 92 1015.5
20260505113908 35 331 7.0 16.0 0.04 0.26 0.09 92 1015.6
20260505113808 35 329 7.0 16.0 0.04 0.26 0.09 92 1015.6
20260505113708 35 355 7.0 16.0 0.04 0.26 0.09 92 1015.6
20260505113628 35 11 7.0 16.0 0.04 0.26 0.09 92 1015.6
20260505113624 35 318 7.0 16.0 0.04 0.26 0.09 92 1015.6
20260505113308 35 333 7.0 16.0 0.04 0.26 0.09 92 1015.6
20260505113205 35 355 7.0 16.0 0.04 0.26 0.09 92 1015.6
20260505113110 35 19 7.0 14.0 0.04 0.26 0.09 92 1015.5
20260505113104 35 314 7.0 14.0 0.04 0.26 0.09 92 1015.5
20260505113004 35 341 7.0 14.0 0.04 0.25 0.08 92 1015.5
20260505112911 35 312 8.0 14.0 0.04 0.25 0.08 92 1015.5
20260505112704 35 9 8.0 14.0 0.04 0.25 0.08 92 1015.5
20260505112617 35 5 8.0 14.0 0.04 0.25 0.08 92 1015.5
20260505112612 35 0 8.0 14.0 0.04 0.25 0.08 92 1015.5
20260505112406 36 301 8.0 14.0 0.04 0.25 0.08 92 1015.5
20260505112305 36 0 8.0 14.0 0.04 0.25 0.08 91 1015.4
20260505112223 36 319 8.0 14.0 0.04 0.25 0.08 91 1015.5
20260505112215 36 355 8.0 19.0 0.04 0.25 0.08 91 1015.4
20260505111905 36 0 9.0 19.0 0.05 0.25 0.08 91 1015.4
20260505111804 36 331 9.0 19.0 0.04 0.24 0.08 91 1015.4
20260505111723 36 5 9.0 19.0 0.04 0.24 0.07 91 1015.4
20260505111716 36 317 10.0 22.0 0.04 0.24 0.07 90 1015.4
20260505111404 36 21 10.0 22.0 0.04 0.24 0.07 90 1015.4
20260505111258 37 355 10.0 22.0 0.04 0.24 0.07 90 1015.4
20260505111158 37 355 11.0 22.0 0.04 0.24 0.07 90 1015.4
20260505111107 37 331 10.0 22.0 0.03 0.23 0.07 91 1015.3
20260505111058 37 331 10.0 22.0 0.03 0.23 0.07 91 1015.3
20260505110959 37 9 10.0 22.0 0.03 0.23 0.06 91 1015.3
20260505110859 38 342 10.0 22.0 0.03 0.23 0.06 91 1015.3
20260505110753 38 13 10.0 22.0 0.03 0.23 0.06 91 1015.3
20260505110651 38 18 10.0 22.0 0.03 0.23 0.06 92 1015.3
20260505110608 38 355 10.0 19.0 0.03 0.23 0.06 92 1015.3
20260505110551 38 42 9.0 18.0 0.03 0.23 0.06 92 1015.2
20260505110450 38 22 9.0 18.0 0.03 0.23 0.06 92 1015.2
20260505110350 38 30 9.0 18.0 0.03 0.23 0.06 92 1015.2
20260505110245 38 9 8.0 18.0 0.03 0.23 0.06 92 1015.2
20260505110144 38 355 8.0 18.0 0.03 0.23 0.06 92 1015.2
20260505110105 38 355 8.0 18.0 0.03 0.23 0.06 92 1015.2
20260505102212 39 22 10.0 20.0 0.04 0.21 0.04 92 1014.5
20260505102109 39 338 10.0 20.0 0.04 0.21 0.04 92 1014.5
20260505102059 39 347 10.0 20.0 0.04 0.21 0.04 92 1014.5
20260505102011 39 355 10.0 20.0 0.04 0.21 0.04 92 1014.3
20260505101802 39 11 10.0 18.0 0.03 0.20 0.03 92 1014.2
20260505101713 39 342 10.0 18.0 0.03 0.20 0.03 92 1014.3
20260505101706 39 326 10.0 18.0 0.03 0.20 0.03 92 1014.2
20260505101458 39 315 10.0 18.0 0.03 0.20 0.03 92 1014.2
20260505101356 39 13 10.0 18.0 0.03 0.20 0.03 92 1014.2
20260505101255 40 348 10.0 18.0 0.03 0.20 0.03 92 1014.2
20260505101156 40 328 10.0 18.0 0.03 0.20 0.03 92 1014.2
20260505101056 40 300 10.0 18.0 0.03 0.20 0.03 92 1014.3
20260505100952 40 15 10.0 18.0 0.03 0.20 0.03 92 1014.3
20260505100852 40 5 11.0 18.0 0.03 0.20 0.03 92 1014.3
20260505100751 40 0 11.0 18.0 0.03 0.20 0.03 92 1014.3
20260505100650 40 309 10.0 17.0 0.03 0.20 0.03 92 1014.3
20260505100550 40 342 11.0 17.0 0.03 0.20 0.03 92 1014.3
20260505100444 40 348 11.0 20.0 0.03 0.20 0.03 92 1014.2
20260505100344 40 345 11.0 20.0 0.03 0.20 0.03 92 1014.2
20260505100244 40 34 11.0 20.0 0.03 0.20 0.03 91 1014.2
20260505100145 40 13 11.0 20.0 0.03 0.20 0.03 91 1014.2
20260505100044 40 14 11.0 20.0 0.03 0.20 0.03 92 1014.2
20260505095945 40 5 11.0 20.0 0.03 0.20 0.03 92 1014.1
20260505095745 40 336 11.0 20.0 0.03 0.20 0.03 92 1014.1
20260505095538 40 5 10.0 20.0 0.03 0.20 0.03 92 1014.1
20260505095433 40 343 10.0 20.0 0.03 0.20 0.03 92 1014.0
20260505095332 40 22 10.0 20.0 0.03 0.20 0.03 92 1014.0
20260505095232 40 9 10.0 20.0 0.03 0.20 0.03 92 1014.0
20260505095132 40 349 9.0 20.0 0.03 0.20 0.03 92 1014.0
20260505095046 40 307 9.0 20.0 0.03 0.20 0.03 92 1014.0
20260505094627 41 17 10.0 18.0 0.02 0.19 0.02 92 1013.9
20260505094526 41 355 10.0 18.0 0.02 0.19 0.02 92 1013.9
20260505094420 41 297 10.0 18.0 0.02 0.19 0.02 92 1013.9
20260505094320 41 355 10.0 18.0 0.02 0.19 0.02 92 1014.0
20260505094220 41 319 10.0 18.0 0.02 0.19 0.02 92 1014.0
20260505094120 41 348 10.0 18.0 0.02 0.19 0.02 92 1013.9
20260505094020 41 346 10.0 18.0 0.02 0.19 0.02 92 1013.9
20260505093914 41 5 10.0 18.0 0.02 0.19 0.02 92 1013.9
20260505093822 41 333 10.0 18.0 0.02 0.19 0.02 92 1014.0
20260505093614 41 355 9.0 18.0 0.02 0.19 0.02 91 1013.9
20260505093513 41 296 9.0 17.0 0.02 0.19 0.02 91 1013.9
20260505093409 41 294 9.0 17.0 0.02 0.19 0.02 91 1013.9
20260505093308 41 355 9.0 19.0 0.02 0.19 0.02 91 1014.0
20260505093226 41 9 9.0 19.0 0.02 0.19 0.02 91 1014.0
20260505093219 41 315 9.0 19.0 0.02 0.19 0.02 91 1014.0
20260505092902 41 337 9.0 19.0 0.01 0.18 0.01 91 1013.9
20260505092802 41 268 9.0 19.0 0.01 0.18 0.01 91 1014.0
20260505092702 41 62 9.0 19.0 0.01 0.18 0.01 91 1014.0
20260505092612 41 334 9.0 19.0 0.00 0.17 0.01 91 1014.0
20260505092501 41 309 9.0 19.0 0.00 0.17 0.00 91 1013.9
20260505092356 41 327 9.0 19.0 0.00 0.17 0.00 91 1014.0
20260505092256 41 319 9.0 17.0 0.00 0.17 0.00 91 1014.0
20260505092155 41 333 9.0 17.0 0.00 0.17 0.00 91 1014.1
20260505092056 41 0 9.0 17.0 0.00 0.17 0.00 90 1014.0
20260505091955 41 33 9.0 16.0 0.00 0.17 0.00 90 1014.0
20260505091850 41 317 9.0 16.0 0.00 0.17 0.00 90 1014.0
20260505091751 41 339 9.0 17.0 0.00 0.17 0.00 90 1014.0
20260505091650 41 342 9.0 17.0 0.00 0.17 0.00 90 1014.0
20260505091549 41 355 9.0 17.0 0.00 0.17 0.00 90 1014.0
20260505091450 41 298 10.0 17.0 0.00 0.17 0.00 90 1014.0
20260505091345 41 331 10.0 17.0 0.00 0.17 0.00 90 1014.0
20260505091244 41 270 11.0 17.0 0.00 0.17 0.00 90 1013.9
20260505091203 41 32 11.0 17.0 0.00 0.17 0.00 90 1013.9
20260505090945 41 335 11.0 17.0 0.00 0.17 0.00 90 1013.7
20260505090738 41 339 11.0 20.0 0.00 0.17 0.00 90 1013.6
20260505090638 41 343 11.0 20.0 0.00 0.17 0.00 90 1013.6
20260505090538 41 281 10.0 20.0 0.00 0.17 0.00 90 1013.6
20260505090438 41 329 9.0 20.0 0.00 0.17 0.00 90 1013.6
20260505090332 41 329 9.0 20.0 0.00 0.17 0.00 90 1013.5
20260505090231 41 308 9.0 20.0 0.00 0.17 0.00 90 1013.5
20260505090131 41 309 8.0 20.0 0.00 0.17 0.00 90 1013.5
20260505090033 41 13 8.0 20.0 0.00 0.17 0.00 90 1013.5
20260505085932 41 331 8.0 20.0 0.00 0.17 0.00 90 1013.5
20260505085828 41 329 8.0 17.0 0.00 0.17 0.00 90 1013.6
20260505085726 41 346 8.0 16.0 0.00 0.17 0.00 90 1013.6
20260505085627 42 9 9.0 16.0 0.00 0.17 0.00 90 1013.6
20260505085536 41 0 9.0 16.0 0.00 0.17 0.00 90 1013.5
20260505085530 42 0 10.0 16.0 0.00 0.17 0.00 90 1013.5
20260505085327 41 315 10.0 16.0 0.00 0.17 0.00 90 1013.6
20260505085119 42 326 10.0 17.0 0.00 0.17 0.00 90 1013.6
20260505085034 42 325 10.0 17.0 0.00 0.17 0.00 90 1013.7
20260505084923 42 302 10.0 17.0 0.00 0.17 0.00 89 1013.7
20260505084721 42 321 10.0 17.0 0.00 0.17 0.00 89 1013.7
20260505084525 42 329 9.0 17.0 0.00 0.17 0.00 89 1013.7
20260505084519 42 0 8.0 17.0 0.00 0.17 0.00 89 1013.6
20260505084308 42 329 8.0 17.0 0.00 0.17 0.00 89 1013.7
20260505084208 42 326 7.0 15.0 0.00 0.17 0.00 89 1013.7
20260505084108 42 323 7.0 15.0 0.00 0.17 0.00 89 1013.6
20260505084009 42 355 6.0 12.0 0.00 0.17 0.00 89 1013.6
20260505083907 42 311 6.0 12.0 0.00 0.17 0.00 89 1013.7
20260505083802 42 355 6.0 12.0 0.00 0.17 0.00 89 1013.6
20260505083701 42 311 6.0 12.0 0.00 0.17 0.00 89 1013.6
20260505083608 42 340 6.0 17.0 0.00 0.17 0.00 89 1013.6
20260505083401 42 339 7.0 17.0 0.00 0.17 0.00 89 1013.7
20260505083257 42 309 7.0 17.0 0.00 0.17 0.00 89 1013.7
20260505083204 42 325 7.0 17.0 0.00 0.17 0.00 89 1013.7
20260505083007 42 349 8.0 17.0 0.00 0.17 0.00 89 1013.7
20260505083000 42 343 9.0 17.0 0.00 0.17 0.00 89 1013.7
20260505082751 43 329 9.0 17.0 0.00 0.17 0.00 89 1013.7
20260505082651 43 315 9.0 17.0 0.00 0.17 0.00 89 1013.7
20260505082550 43 350 8.0 17.0 0.00 0.17 0.00 89 1013.7
20260505082502 43 299 8.0 17.0 0.00 0.17 0.00 89 1013.9
20260505082351 43 5 8.0 17.0 0.00 0.17 0.00 89 1013.9
20260505082243 43 348 7.0 17.0 0.00 0.17 0.00 89 1013.9
20260505082144 43 340 8.0 17.0 0.00 0.17 0.00 89 1013.7
20260505082053 43 346 8.0 18.0 0.00 0.17 0.00 89 1013.7
20260505081843 43 346 7.0 18.0 0.00 0.17 0.00 89 1013.9
20260505081738 44 355 8.0 18.0 0.00 0.17 0.00 89 1013.9
20260505081645 44 17 7.0 18.0 0.00 0.17 0.00 89 1013.9
20260505081439 44 355 8.0 20.0 0.00 0.17 0.00 89 1013.9
20260505081338 44 0 8.0 20.0 0.00 0.17 0.00 89 1013.9
20260505081234 44 290 8.0 20.0 0.00 0.17 0.00 89 1013.9
20260505081139 44 5 8.0 20.0 0.00 0.17 0.00 89 1013.9
20260505080932 45 305 8.0 20.0 0.00 0.17 0.00 89 1013.9
20260505080831 45 343 7.0 20.0 0.00 0.17 0.00 89 1013.9
20260505080739 45 355 6.0 20.0 0.00 0.17 0.00 91 1014.0
20260505080426 45 319 5.0 13.0 0.00 0.17 0.00 91 1013.9
20260505080325 45 348 5.0 13.0 0.00 0.17 0.00 91 1013.9
20260505080220 45 20 5.0 13.0 0.00 0.17 0.00 91 1013.7
20260505080120 45 21 4.0 13.0 0.00 0.17 0.00 91 1013.9
20260505080019 45 348 4.0 9.0 0.00 0.17 0.00 91 1013.7
20260505075930 45 351 4.0 9.0 0.00 0.17 0.00 91 1013.7
20260505075819 45 10 3.0 8.0 0.00 0.17 0.00 91 1013.6
20260505075718 45 0 3.0 8.0 0.00 0.17 0.00 91 1013.6
20260505075616 45 346 3.0 8.0 0.00 0.17 0.00 91 1013.5
20260505075516 45 350 2.0 8.0 0.00 0.17 0.00 91 1013.5
20260505075417 45 355 2.0 6.0 0.00 0.17 0.00 91 1013.5
20260505075314 45 355 1.0 5.0 0.00 0.17 0.00 91 1013.4
20260505075211 45 350 1.0 5.0 0.00 0.17 0.00 91 1013.4
20260505075112 45 0 1.0 5.0 0.00 0.17 0.00 91 1013.4
20260505075012 45 329 0.0 5.0 0.00 0.17 0.00 91 1013.4
20260505074910 45 237 0.0 3.0 0.00 0.17 0.00 91 1013.5
20260505074815 45 179 0.0 0.0 0.00 0.17 0.00 91 1013.5
20260505074617 45 179 0.0 0.0 0.00 0.17 0.00 91 1013.4
20260505074302 45 179 0.0 0.0 0.00 0.17 0.00 91 1013.5
20260505074202 45 179 0.0 0.0 0.00 0.17 0.00 91 1013.4
20260505074107 45 179 0.0 0.0 0.00 0.17 0.00 90 1013.4
20260505073857 45 179 0.0 0.0 0.00 0.17 0.00 90 1013.4
20260505073755 45 179 0.0 0.0 0.00 0.17 0.00 90 1013.5
20260505073652 45 179 0.0 0.0 0.00 0.17 0.00 90 1013.5
20260505073553 45 179 0.0 0.0 0.00 0.17 0.00 90 1013.5
20260505073453 45 179 0.0 0.0 0.00 0.17 0.00 90 1013.6
20260505073400 45 179 0.0 0.0 0.00 0.17 0.00 90 1013.6
20260505073354 45 179 0.0 0.0 0.00 0.17 0.00 90 1013.6
20260505073145 45 179 0.0 0.0 0.00 0.17 0.00 90 1013.6
20260505073044 45 179 0.0 0.0 0.00 0.17 0.00 90 1013.6
20260505072944 45 179 0.0 0.0 0.00 0.17 0.00 90 1013.6
20260505072854 45 179 0.0 0.0 0.00 0.17 0.00 90 1013.6
20260505072847 45 179 0.0 0.0 0.00 0.17 0.00 90 1013.5
20260505072645 45 179 0.0 0.0 0.00 0.17 0.00 90 1013.5
20260505072542 45 179 0.0 0.0 0.00 0.17 0.00 90 1013.5
20260505072442 45 179 0.0 0.0 0.00 0.17 0.00 90 1013.4
20260505072340 45 179 0.0 0.0 0.00 0.17 0.00 90 1013.4
20260505072237 45 179 0.0 0.0 0.00 0.17 0.00 90 1013.5
20260505072133 45 179 0.0 0.0 0.00 0.17 0.00 90 1013.4
20260505072038 45 179 0.0 0.0 0.00 0.17 0.00 90 1013.4
20260505071831 45 179 0.0 0.0 0.00 0.17 0.00 90 1013.5
20260505071732 45 179 0.0 0.0 0.00 0.17 0.00 90 1013.5
20260505071637 45 179 0.0 0.0 0.00 0.17 0.00 90 1013.4
20260505071430 45 179 0.0 2.0 0.00 0.17 0.00 90 1013.5
20260505071327 45 179 0.0 2.0 0.00 0.17 0.00 90 1013.5
20260505071225 45 179 1.0 3.0 0.00 0.17 0.00 90 1013.5
20260505071126 45 179 1.0 3.0 0.00 0.17 0.00 90 1013.5
20260505071024 45 179 1.0 3.0 0.00 0.17 0.00 90 1013.5
20260505070923 45 179 1.0 3.0 0.00 0.17 0.00 90 1013.5
20260505070831 45 179 1.0 3.0 0.00 0.17 0.00 90 1013.5
20260505070824 45 179 1.0 3.0 0.00 0.17 0.00 90 1013.5
20260505070621 45 179 2.0 3.0 0.00 0.17 0.00 90 1013.5
20260505070413 45 179 2.0 5.0 0.00 0.17 0.00 90 1013.6
20260505070313 45 179 2.0 5.0 0.00 0.17 0.00 90 1013.6
20260505070214 45 179 2.0 5.0 0.00 0.17 0.00 90 1013.5
20260505070114 45 179 2.0 5.0 0.00 0.17 0.00 90 1013.5
20260505070012 45 179 2.0 5.0 0.00 0.17 0.00 90 1013.5
20260505065911 45 179 2.0 5.0 0.00 0.17 0.00 90 1013.6
20260505065819 45 179 2.0 5.0 0.00 0.17 0.00 90 1013.5
20260505065707 45 179 2.0 5.0 0.00 0.17 0.00 90 1013.5
20260505065603 45 179 2.0 5.0 0.00 0.17 0.00 90 1013.5
20260505065511 45 169 2.0 5.0 0.00 0.17 0.00 90 1013.5
20260505065305 45 163 2.0 5.0 0.00 0.17 0.00 90 1013.5
20260505065201 45 163 1.0 5.0 0.00 0.17 0.00 90 1013.5
20260505065100 45 192 1.0 3.0 0.00 0.17 0.00 90 1013.5
20260505065000 45 192 1.0 3.0 0.00 0.17 0.00 90 1013.5
20260505064858 45 192 1.0 2.0 0.00 0.17 0.00 90 1013.5
20260505064757 45 192 1.0 2.0 0.00 0.17 0.00 90 1013.5
20260505064655 45 192 1.0 2.0 0.00 0.17 0.00 90 1013.6
20260505064557 45 192 1.0 2.0 0.00 0.17 0.00 90 1013.6
20260505064347 45 192 1.0 2.0 0.00 0.17 0.00 90 1013.6
20260505064247 45 192 1.0 2.0 0.00 0.17 0.00 90 1013.6
20260505064146 45 192 0.0 2.0 0.00 0.17 0.00 90 1013.6
20260505064047 45 192 0.0 2.0 0.00 0.17 0.00 90 1013.6
20260505063946 45 192 0.0 2.0 0.00 0.17 0.00 90 1013.6
20260505063845 45 192 1.0 2.0 0.00 0.17 0.00 90 1013.6
20260505063743 45 192 1.0 2.0 0.00 0.17 0.00 90 1013.6
20260505063641 45 192 1.0 2.0 0.00 0.17 0.00 90 1013.6
20260505063539 45 192 1.0 2.0 0.00 0.17 0.00 90 1013.6
20260505063439 45 192 1.0 2.0 0.00 0.17 0.00 90 1013.6
20260505063354 45 192 1.0 2.0 0.00 0.17 0.00 90 1013.5
20260505063347 45 192 1.0 2.0 0.00 0.17 0.00 90 1013.6
20260505063030 45 192 1.0 2.0 0.00 0.17 0.00 90 1013.6
20260505062929 44 192 1.0 2.0 0.00 0.17 0.00 90 1013.6
20260505062848 44 192 1.0 2.0 0.00 0.17 0.00 90 1013.6
20260505062629 45 192 1.0 2.0 0.00 0.17 0.00 90 1013.6
20260505062523 44 192 1.0 2.0 0.00 0.17 0.00 90 1013.6
20260505062429 44 192 1.0 2.0 0.00 0.17 0.00 90 1013.6
20260505062240 44 192 1.0 2.0 0.00 0.17 0.00 90 1013.6
20260505062123 44 192 1.0 3.0 0.00 0.17 0.00 90 1013.6
20260505062021 44 192 0.0 3.0 0.00 0.17 0.00 90 1013.5
20260505061921 44 192 0.0 3.0 0.00 0.17 0.00 90 1013.6
20260505061821 44 192 0.0 3.0 0.00 0.17 0.00 90 1013.5
20260505061720 44 192 0.0 3.0 0.00 0.17 0.00 90 1013.6
20260505061617 44 192 0.0 3.0 0.00 0.17 0.00 90 1013.5
20260505061529 44 192 0.0 3.0 0.00 0.17 0.00 90 1013.6
20260505061225 44 192 1.0 3.0 0.00 0.17 0.00 90 1013.6
20260505061220 44 192 0.0 3.0 0.00 0.17 0.00 90 1013.6
20260505061017 44 192 0.0 3.0 0.00 0.17 0.00 90 1013.6
20260505060806 44 192 0.0 3.0 0.00 0.17 0.00 90 1013.6
20260505060708 44 192 0.0 3.0 0.00 0.17 0.00 90 1013.7
20260505060630 44 192 0.0 3.0 0.00 0.17 0.00 90 1013.7
20260505060607 44 192 0.0 3.0 0.00 0.17 0.00 89 1013.7
20260505060505 44 192 0.0 3.0 0.00 0.17 0.00 89 1013.6
20260505060405 44 192 0.0 3.0 0.00 0.17 0.00 89 1013.6
20260505060305 44 192 0.0 2.0 0.00 0.17 0.00 89 1013.6
20260505060201 44 192 0.0 2.0 0.00 0.17 0.00 89 1013.6
20260505060132 44 192 0.0 2.0 0.00 0.17 0.00 89 1013.6
20260505060100 44 192 0.0 0.0 0.00 0.17 0.00 89 1013.6
20260505055958 44 192 0.0 0.0 0.00 0.17 0.17 89 1013.6
20260505055749 44 192 0.0 0.0 0.00 0.17 0.17 89 1013.6
20260505055630 44 192 0.0 0.0 0.00 0.17 0.17 89 1013.6
20260505055549 44 192 0.0 0.0 0.00 0.17 0.17 89 1013.7
20260505055449 44 192 0.0 0.0 0.00 0.17 0.17 89 1013.7
20260505055345 44 192 0.0 0.0 0.00 0.17 0.17 89 1013.7
20260505055337 44 192 0.0 0.0 0.00 0.17 0.17 89 1013.7
20260505055050 44 192 0.0 2.0 0.00 0.17 0.17 89 1013.7
20260505054841 44 192 1.0 3.0 0.00 0.17 0.17 89 1013.7
20260505054748 44 192 1.0 3.0 0.00 0.17 0.17 89 1013.7
20260505054618 44 192 1.0 3.0 0.00 0.17 0.17 89 1013.7
20260505054545 44 192 1.0 3.0 0.00 0.17 0.17 89 1013.7
20260505054333 44 192 1.0 3.0 0.00 0.17 0.17 89 1013.7
20260505054231 44 192 1.0 3.0 0.00 0.17 0.17 89 1013.7
20260505054140 44 192 1.0 3.0 0.00 0.17 0.17 89 1013.6
20260505053931 44 192 1.0 2.0 0.00 0.17 0.17 89 1013.6
20260505053827 44 192 1.0 2.0 0.00 0.17 0.17 89 1013.6
20260505053727 44 192 1.0 2.0 0.00 0.17 0.17 89 1013.5
20260505053632 44 192 1.0 3.0 0.00 0.17 0.17 89 1013.5
20260505053437 44 192 1.0 3.0 0.00 0.17 0.17 89 1013.5
20260505053102 44 192 1.0 3.0 0.00 0.17 0.17 89 1013.5
20260505053021 44 192 1.0 3.0 0.00 0.17 0.17 89 1013.5
20260505052918 44 192 1.0 3.0 0.00 0.17 0.17 89 1013.5
20260505052818 44 192 1.0 3.0 0.00 0.17 0.17 89 1013.5
20260505052717 44 192 1.0 3.0 0.00 0.17 0.17 89 1013.5
20260505052601 44 192 1.0 2.0 0.00 0.17 0.17 89 1013.5
20260505052515 44 192 1.0 2.0 0.00 0.17 0.17 89 1013.5
20260505052413 44 192 1.0 3.0 0.00 0.17 0.17 89 1013.5
20260505052309 44 192 1.0 3.0 0.00 0.17 0.17 89 1013.5
20260505052207 44 192 1.0 3.0 0.00 0.17 0.17 88 1013.5
20260505052102 44 192 1.0 3.0 0.00 0.17 0.17 88 1013.5
20260505052008 44 192 1.0 3.0 0.00 0.17 0.17 88 1013.5
20260505051907 44 192 2.0 3.0 0.00 0.17 0.17 88 1013.5
20260505051805 44 192 2.0 3.0 0.00 0.17 0.17 88 1013.5
20260505051706 44 192 2.0 3.0 0.00 0.17 0.17 88 1013.5
20260505051601 44 192 2.0 3.0 0.00 0.17 0.17 88 1013.5
20260505051504 44 192 2.0 3.0 0.00 0.17 0.17 88 1013.6
20260505051402 44 192 2.0 3.0 0.00 0.17 0.17 88 1013.5
20260505051301 44 192 2.0 3.0 0.00 0.17 0.17 88 1013.6
20260505051159 44 192 2.0 3.0 0.00 0.17 0.17 88 1013.6
20260505051103 45 192 2.0 4.0 0.00 0.17 0.17 88 1013.7
20260505051059 45 192 2.0 4.0 0.00 0.17 0.17 88 1013.7
20260505050957 45 192 2.0 4.0 0.00 0.17 0.17 88 1013.7
20260505050854 45 192 2.0 4.0 0.00 0.17 0.17 88 1013.7
20260505050749 45 192 2.0 4.0 0.00 0.17 0.17 88 1013.7
20260505050649 45 192 2.0 4.0 0.00 0.17 0.17 88 1013.9
20260505050601 45 192 2.0 4.0 0.00 0.17 0.17 88 1013.9
20260505050549 45 192 2.0 4.0 0.00 0.17 0.17 88 1013.9
20260505050449 45 192 2.0 4.0 0.00 0.17 0.17 88 1013.7
20260505050349 45 192 2.0 4.0 0.00 0.17 0.17 88 1013.7
20260505050247 45 192 2.0 4.0 0.01 0.17 0.17 88 1013.7
20260505050148 45 204 2.0 4.0 0.01 0.17 0.17 88 1013.7
20260505041755 46 260 2.0 4.0 0.07 0.17 0.17 88 1014.0
20260505041705 46 260 2.0 4.0 0.07 0.17 0.17 88 1014.0
20260505041551 46 260 2.0 4.0 0.08 0.17 0.17 88 1014.0
20260505041454 46 217 2.0 4.0 0.08 0.17 0.17 88 1014.1
20260505041353 46 227 2.0 4.0 0.08 0.17 0.17 88 1014.1
20260505041253 46 227 2.0 4.0 0.08 0.17 0.17 88 1014.2
20260505041153 46 227 2.0 4.0 0.09 0.17 0.17 88 1014.2
20260505041052 46 227 2.0 5.0 0.09 0.17 0.17 87 1014.2
20260505041006 46 227 2.0 5.0 0.09 0.17 0.17 87 1014.3
20260505040651 46 234 3.0 5.0 0.10 0.17 0.17 87 1014.2
20260505040551 46 234 3.0 5.0 0.10 0.17 0.17 87 1014.2
20260505040451 46 234 3.0 5.0 0.10 0.17 0.17 87 1014.2
20260505040352 46 241 3.0 5.0 0.11 0.17 0.17 87 1014.2
20260505040251 46 227 3.0 5.0 0.10 0.16 0.16 87 1014.2
20260505040153 46 218 3.0 5.0 0.10 0.16 0.16 87 1014.2
20260505040052 46 222 3.0 5.0 0.10 0.16 0.16 87 1014.1
20260505035947 46 233 3.0 5.0 0.11 0.16 0.16 87 1014.2
20260505035848 46 202 3.0 5.0 0.11 0.16 0.16 87 1014.1
20260505035805 46 242 2.0 5.0 0.11 0.16 0.16 87 1014.1
20260505035758 46 213 2.0 5.0 0.12 0.16 0.16 86 1014.1
20260505035439 46 203 2.0 5.0 0.12 0.16 0.16 86 1014.1
20260505035339 46 227 2.0 4.0 0.13 0.16 0.16 86 1014.1
20260505035240 46 238 2.0 4.0 0.13 0.16 0.16 86 1014.1
20260505035150 46 230 2.0 4.0 0.13 0.16 0.16 86 1014.0
20260505035039 46 234 2.0 4.0 0.14 0.16 0.16 86 1014.0
20260505034934 46 224 2.0 4.0 0.14 0.16 0.16 86 1014.0
20260505034833 46 223 2.0 4.0 0.14 0.16 0.16 85 1014.0
20260505034733 46 221 2.0 5.0 0.14 0.16 0.16 85 1014.0
20260505034644 46 238 2.0 5.0 0.14 0.16 0.16 85 1014.0
20260505034533 46 224 2.0 5.0 0.13 0.15 0.16 85 1014.0
20260505034428 46 196 2.0 6.0 0.13 0.15 0.15 85 1014.1
20260505034327 46 221 2.0 7.0 0.13 0.15 0.15 85 1014.1
20260505034227 47 178 2.0 7.0 0.13 0.15 0.15 85 1014.1
20260505034150 47 217 2.0 7.0 0.14 0.15 0.15 85 1014.1
20260505034039 47 229 3.0 7.0 0.13 0.14 0.15 85 1014.1
20260505033723 47 244 4.0 9.0 0.13 0.14 0.14 84 1014.1
20260505033623 47 244 5.0 9.0 0.13 0.14 0.14 84 1014.1
20260505033521 47 244 5.0 9.0 0.13 0.14 0.14 84 1014.2
20260505033415 47 226 5.0 9.0 0.12 0.13 0.14 84 1014.2
20260505033315 47 222 5.0 9.0 0.12 0.13 0.13 84 1014.2
20260505033216 47 206 6.0 9.0 0.12 0.13 0.13 84 1014.3
20260505033128 47 219 6.0 9.0 0.12 0.13 0.13 84 1014.3
20260505033120 47 223 6.0 9.0 0.12 0.13 0.13 84 1014.3
20260505032817 47 267 6.0 10.0 0.11 0.12 0.12 83 1014.3
20260505032609 47 232 5.0 10.0 0.11 0.12 0.12 83 1014.2
20260505032509 47 242 6.0 10.0 0.11 0.12 0.12 83 1014.2
20260505032406 47 245 6.0 11.0 0.10 0.11 0.11 83 1014.2
20260505032305 47 240 6.0 11.0 0.10 0.11 0.11 83 1014.2
20260505032205 47 242 6.0 12.0 0.10 0.11 0.11 83 1014.2
20260505032105 47 263 6.0 12.0 0.10 0.11 0.11 83 1014.2
20260505032005 47 243 7.0 15.0 0.09 0.10 0.11 83 1014.2
20260505031757 48 220 7.0 15.0 0.09 0.10 0.10 83 1014.2
20260505031658 48 235 8.0 16.0 0.09 0.10 0.10 82 1014.2
20260505031557 48 276 9.0 16.0 0.08 0.09 0.10 82 1014.0
20260505031456 48 238 9.0 16.0 0.08 0.09 0.09 82 1014.1
20260505031351 48 256 9.0 16.0 0.08 0.09 0.09 82 1014.0
20260505031251 48 275 9.0 16.0 0.08 0.09 0.09 82 1014.0
20260505031151 48 277 10.0 16.0 0.07 0.08 0.09 81 1014.0
20260505031051 48 289 10.0 16.0 0.07 0.08 0.08 81 1014.0
20260505030959 48 259 10.0 16.0 0.07 0.08 0.08 81 1013.9
20260505030645 48 284 10.0 19.0 0.06 0.07 0.07 81 1013.9
20260505030545 49 284 10.0 19.0 0.06 0.07 0.07 81 1014.0
20260505030446 49 270 10.0 19.0 0.06 0.07 0.07 81 1014.0
20260505030341 49 271 10.0 19.0 0.05 0.06 0.07 81 1013.9
20260505030240 49 292 10.0 19.0 0.05 0.06 0.06 81 1013.9
20260505030139 49 318 10.0 19.0 0.05 0.06 0.06 81 1013.9
20260505030050 49 293 10.0 19.0 0.05 0.06 0.06 81 1013.7
20260505025939 49 261 10.0 19.0 0.04 0.05 0.06 80 1013.7
20260505025834 49 299 10.0 18.0 0.04 0.05 0.05 80 1013.7
20260505025734 49 279 10.0 18.0 0.04 0.05 0.05 80 1013.6
20260505025634 49 313 10.0 18.0 0.03 0.04 0.05 80 1013.6
20260505025534 49 288 10.0 18.0 0.03 0.04 0.04 80 1013.6
20260505025433 49 292 10.0 16.0 0.03 0.04 0.04 80 1013.5
20260505025327 49 306 10.0 16.0 0.02 0.03 0.04 80 1013.5
20260505025227 49 270 10.0 16.0 0.02 0.03 0.03 80 1013.5
20260505025133 49 313 10.0 16.0 0.02 0.03 0.03 79 1013.4
20260505024927 49 339 10.0 16.0 0.01 0.02 0.02 78 1013.5
20260505024822 49 284 10.0 14.0 0.01 0.02 0.02 78 1013.4
20260505024722 49 315 10.0 14.0 0.01 0.02 0.02 78 1013.4
20260505024620 50 272 9.0 14.0 0.01 0.02 0.02 78 1013.3
20260505024521 50 289 9.0 14.0 0.01 0.02 0.02 77 1013.3
20260505024421 50 299 9.0 14.0 0.01 0.02 0.02 77 1013.3
20260505024316 50 325 8.0 14.0 0.01 0.02 0.02 77 1013.3
20260505024215 50 299 8.0 14.0 0.01 0.02 0.02 76 1013.3
20260505024115 50 321 7.0 14.0 0.00 0.01 0.02 76 1013.2
20260505024015 50 292 6.0 13.0 0.00 0.01 0.01 76 1013.2
20260505023915 50 285 6.0 13.0 0.00 0.01 0.01 76 1013.2
20260505023717 50 306 5.0 10.0 0.00 0.01 0.01 75 1013.2
20260505023520 50 313 5.0 9.0 0.00 0.01 0.01 74 1012.9
20260505023513 50 348 5.0 9.0 0.00 0.01 0.01 74 1012.9
20260505023303 50 305 5.0 14.0 0.00 0.01 0.01 74 1012.9
20260505023204 50 347 5.0 14.0 0.00 0.01 0.01 74 1013.0
20260505023103 50 338 6.0 14.0 0.00 0.01 0.01 73 1013.0
20260505023014 50 19 6.0 14.0 0.00 0.01 0.01 73 1013.0
20260505022902 50 330 6.0 14.0 0.00 0.01 0.01 73 1012.9
20260505022759 50 333 6.0 14.0 0.00 0.01 0.01 72 1012.9
20260505022657 50 311 7.0 14.0 0.00 0.01 0.01 72 1012.9
20260505022557 50 275 7.0 14.0 0.00 0.01 0.01 72 1012.9
20260505022457 50 339 8.0 14.0 0.00 0.01 0.01 72 1012.8
20260505022356 50 355 7.0 14.0 0.00 0.01 0.01 71 1012.8
20260505022258 50 338 7.0 14.0 0.00 0.01 0.01 71 1012.8
20260505022051 50 0 7.0 14.0 0.00 0.01 0.01 71 1012.7
20260505021952 50 311 6.0 14.0 0.00 0.01 0.01 71 1012.7
20260505021859 51 331 6.0 14.0 0.00 0.01 0.01 70 1012.7
20260505021851 51 302 6.0 14.0 0.00 0.01 0.01 70 1012.6
20260505021752 51 340 6.0 14.0 0.00 0.01 0.01 70 1012.7
20260505021545 51 350 6.0 15.0 0.00 0.01 0.01 70 1012.7
20260505021456 51 317 6.0 15.0 0.00 0.01 0.01 70 1012.7
20260505021449 51 300 6.0 15.0 0.00 0.01 0.01 69 1012.7
20260505021240 51 15 7.0 15.0 0.00 0.01 0.01 69 1012.7
20260505021139 51 5 7.0 15.0 0.00 0.01 0.01 69 1012.7
20260505021039 51 355 7.0 15.0 0.00 0.01 0.01 68 1012.7
20260505020939 51 355 7.0 15.0 0.00 0.01 0.01 68 1012.7
20260505020859 51 327 7.0 15.0 0.00 0.01 0.01 68 1012.7
20260505020839 51 355 7.0 15.0 0.00 0.01 0.01 68 1012.7
20260505020733 51 11 7.0 15.0 0.00 0.01 0.01 67 1012.7
20260505020639 51 349 7.0 15.0 0.00 0.01 0.01 67 1012.7
20260505020446 51 308 6.0 14.0 0.00 0.01 0.01 67 1012.6
20260505020442 51 0 6.0 14.0 0.00 0.01 0.01 67 1012.6
20260505020127 52 348 6.0 13.0 0.00 0.01 0.01 67 1012.6
20260505020027 52 333 6.0 13.0 0.00 0.01 0.01 66 1012.6
20260505020004 52 0 6.0 13.0 0.00 0.01 0.01 66 1012.8
20260505015826 52 26 6.0 13.0 0.00 0.01 0.01 66 1012.8
20260505015721 52 344 6.0 13.0 0.00 0.01 0.01 66 1012.8
20260505015628 52 282 6.0 13.0 0.00 0.01 0.01 66 1012.8
20260505015421 53 332 6.0 13.0 0.00 0.01 0.01 66 1012.8
20260505015358 53 14 6.0 13.0 0.00 0.01 0.01 65 1012.8
20260505015321 53 334 6.0 14.0 0.00 0.01 0.01 65 1012.8
20260505015217 53 11 7.0 14.0 0.00 0.01 0.01 64 1012.8
20260505015115 53 288 7.0 14.0 0.00 0.01 0.01 64 1012.8
20260505015015 53 306 8.0 16.0 0.00 0.01 0.01 63 1012.8
20260505014915 53 337 8.0 16.0 0.00 0.01 0.01 63 1012.8
20260505014900 53 346 8.0 16.0 0.00 0.01 0.01 62 1012.8
20260505014815 53 331 7.0 16.0 0.00 0.01 0.01 62 1012.8
20260505014716 54 342 6.0 16.0 0.00 0.01 0.01 61 1012.8
20260505014509 54 289 5.0 16.0 0.00 0.01 0.01 59 1012.7
20260505014409 54 53 5.0 16.0 0.00 0.01 0.01 58 1012.7
20260505014400 54 17 5.0 16.0 0.00 0.01 0.01 58 1012.7
20260505014310 54 40 4.0 16.0 0.00 0.01 0.01 58 1012.6
20260505014127 55 5 2.0 16.0 0.00 0.01 0.01 56 1012.6
20260505014121 55 35 1.0 12.0 0.00 0.01 0.01 55 1012.7
20260505013659 55 34 1.0 3.0 0.00 0.01 0.01 54 1012.3
20260505013622 55 34 1.0 4.0 0.00 0.01 0.01 54 1012.4
20260505013615 55 34 1.0 4.0 0.00 0.01 0.01 54 1012.3
20260505013150 55 34 1.0 4.0 0.00 0.01 0.01 54 1012.2
20260505013051 55 34 1.0 4.0 0.00 0.01 0.01 55 1012.2
20260505012952 55 34 1.0 4.0 0.00 0.01 0.01 55 1012.4
20260505012851 55 34 1.0 4.0 0.00 0.01 0.01 55 1012.4
20260505012750 55 34 1.0 4.0 0.00 0.01 0.01 54 1012.4
20260505012649 55 34 1.0 4.0 0.00 0.01 0.01 54 1012.4
20260505012549 55 28 1.0 4.0 0.00 0.01 0.01 54 1012.4
20260505012449 55 10 1.0 4.0 0.00 0.01 0.01 54 1012.4
20260505012348 55 159 1.0 4.0 0.00 0.01 0.01 55 1012.4
20260505012245 55 159 1.0 4.0 0.00 0.01 0.01 55 1012.4
20260505012145 55 159 1.0 4.0 0.00 0.01 0.01 54 1012.4
20260505012113 55 159 1.0 4.0 0.00 0.01 0.01 54 1012.4
20260505011846 55 159 1.0 4.0 0.00 0.01 0.01 53 1012.4
20260505011639 55 159 2.0 5.0 0.00 0.01 0.01 53 1012.4
20260505011434 56 159 2.0 5.0 0.00 0.01 0.01 53 1012.4
20260505011355 56 159 2.0 6.0 0.00 0.01 0.01 53 1012.4
20260505011341 56 159 2.0 6.0 0.00 0.01 0.01 53 1012.3
20260505011128 56 159 2.0 6.0 0.00 0.01 0.01 53 1012.2
20260505011027 56 159 2.0 6.0 0.00 0.01 0.01 53 1012.2
20260505010927 56 159 2.0 6.0 0.00 0.01 0.01 53 1012.2
20260505010856 56 159 2.0 6.0 0.00 0.01 0.01 53 1012.2
20260505010827 56 159 3.0 6.0 0.00 0.01 0.01 53 1012.2
20260505010727 56 159 3.0 6.0 0.00 0.01 0.01 53 1012.2
20260505010621 56 159 3.0 6.0 0.00 0.01 0.01 52 1012.3
20260505010521 56 159 3.0 6.0 0.00 0.01 0.01 52 1012.3
20260505010431 56 159 3.0 6.0 0.00 0.01 0.01 52 1012.3
20260505010426 56 159 3.0 6.0 0.00 0.01 0.01 52 1012.3
20260505010222 56 147 3.0 6.0 0.00 0.01 0.01 52 1012.3
20260505010107 56 160 4.0 11.0 0.00 0.01 0.01 52 1012.3
20260505005811 56 134 4.0 11.0 0.00 0.01 0.01 52 1012.2
20260505005711 56 129 5.0 11.0 0.00 0.01 0.01 51 1012.2
20260505005612 56 101 5.0 11.0 0.00 0.01 0.01 51 1012.2
20260505005404 56 131 6.0 11.0 0.00 0.01 0.01 50 1012.1
20260505005350 56 157 6.0 11.0 0.00 0.01 0.01 50 1012.1
20260505005306 57 112 6.0 11.0 0.00 0.01 0.01 50 1012.1
20260505005205 57 141 6.0 11.0 0.00 0.01 0.01 50 1012.1
20260505005101 57 151 5.0 10.0 0.00 0.01 0.01 49 1012.1
20260505005001 57 148 5.0 10.0 0.00 0.01 0.01 49 1012.1
20260505004900 57 140 5.0 10.0 0.00 0.01 0.01 48 1012.1
20260505004851 57 126 5.0 10.0 0.00 0.01 0.01 48 1012.2
20260505004802 57 157 5.0 10.0 0.00 0.01 0.01 48 1012.2
20260505004658 57 139 4.0 9.0 0.00 0.01 0.01 48 1012.2
20260505004553 57 109 4.0 9.0 0.00 0.01 0.01 47 1012.1
20260505004453 57 92 4.0 9.0 0.00 0.01 0.01 48 1012.2
20260505004355 57 140 3.0 9.0 0.00 0.01 0.01 48 1012.2
20260505004351 57 145 3.0 9.0 0.00 0.01 0.01 48 1012.2
20260505004259 58 138 3.0 9.0 0.00 0.01 0.01 48 1012.2
20260505004052 58 156 3.0 9.0 0.00 0.01 0.01 48 1012.2
20260505003952 58 137 3.0 9.0 0.00 0.01 0.01 47 1012.2
20260505003856 58 134 2.0 7.0 0.00 0.01 0.01 47 1012.2
20260505003850 58 134 2.0 7.0 0.00 0.01 0.01 47 1012.1
20260505003800 58 134 2.0 7.0 0.00 0.01 0.01 47 1012.1
20260505003551 58 128 2.0 4.0 0.00 0.01 0.01 47 1012.1
20260505003501 58 128 1.0 4.0 0.00 0.01 0.01 47 1012.1
20260505003349 58 128 1.0 4.0 0.00 0.01 0.01 47 1012.1
20260505003250 58 121 1.0 4.0 0.00 0.01 0.01 46 1012.0
20260505003149 58 323 1.0 3.0 0.00 0.01 0.01 46 1012.0
20260505003050 58 323 1.0 3.0 0.00 0.01 0.01 46 1012.0
20260505002950 58 323 1.0 3.0 0.00 0.01 0.01 46 1012.1
20260505002852 58 323 1.0 3.0 0.00 0.01 0.01 46 1012.1
20260505002848 58 323 1.0 3.0 0.00 0.01 0.01 46 1012.0
20260505002748 58 324 1.0 3.0 0.00 0.01 0.01 46 1012.0
20260505002650 58 323 1.0 3.0 0.00 0.01 0.01 46 1012.0
20260505002549 58 324 1.0 3.0 0.00 0.01 0.01 45 1012.1
20260505002449 58 323 1.0 3.0 0.00 0.01 0.01 45 1012.0
20260505002352 58 323 1.0 3.0 0.00 0.01 0.01 45 1012.1
20260505002345 58 324 1.0 3.0 0.00 0.01 0.01 45 1012.1
20260505002242 58 323 1.0 5.0 0.00 0.01 0.01 45 1012.1
20260505002142 58 324 1.0 5.0 0.00 0.01 0.01 46 1012.1
20260505002043 58 323 1.0 5.0 0.00 0.01 0.01 46 1012.1
20260505001942 58 323 2.0 5.0 0.00 0.01 0.01 46 1012.1
20260505001851 58 324 2.0 7.0 0.00 0.01 0.01 46 1012.1
20260505001843 58 323 2.0 7.0 0.00 0.01 0.01 46 1012.1
20260505001545 58 323 3.0 8.0 0.00 0.01 0.01 45 1011.9
20260505001351 58 324 4.0 9.0 0.00 0.01 0.01 45 1011.9
20260505001337 58 323 4.0 9.0 0.00 0.01 0.01 45 1011.9
20260505001236 58 323 4.0 9.0 0.00 0.01 0.01 45 1012.0
20260505001135 58 324 4.0 9.0 0.00 0.01 0.01 45 1012.0
20260505001035 58 324 5.0 9.0 0.00 0.01 0.01 45 1012.0
20260505000935 58 308 5.0 10.0 0.00 0.01 0.01 45 1012.0
20260505000850 58 302 5.0 10.0 0.00 0.01 0.01 45 1012.0
20260505000835 58 293 5.0 10.0 0.00 0.01 0.01 45 1012.0
20260505000742 58 306 4.0 10.0 0.00 0.01 0.01 45 1011.9
20260505000543 58 336 5.0 10.0 0.00 0.01 0.01 45 1011.9
20260505000351 58 313 5.0 11.0 0.00 0.01 0.01 45 1011.9
20260505000343 58 325 5.0 11.0 0.00 0.01 0.01 45 1011.7
20260505000135 58 327 5.0 11.0 0.00 0.01 0.01 45 1011.7
20260505000036 58 338 5.0 11.0 0.00 0.01 0.01 46 1011.6
20260504235936 58 355 6.0 13.0 0.00 0.01 0.01 46 1011.7
20260504235851 58 9 6.0 13.0 0.00 0.01 0.01 46 1011.7
20260504235835 58 336 6.0 13.0 0.00 0.01 0.01 46 1011.6
20260504235735 58 306 6.0 13.0 0.00 0.01 0.01 45 1011.6
20260504235630 58 5 6.0 13.0 0.00 0.01 0.01 45 1011.6
20260504235529 58 316 6.0 13.0 0.00 0.01 0.01 44 1011.6
20260504235429 59 300 6.0 13.0 0.00 0.01 0.01 45 1011.7
20260504235351 59 299 6.0 13.0 0.00 0.01 0.01 45 1011.7
20260504235329 59 348 6.0 13.0 0.00 0.01 0.01 45 1011.7
20260504235229 59 338 6.0 13.0 0.00 0.01 0.01 45 1011.6
20260504235123 59 325 6.0 13.0 0.00 0.01 0.01 45 1011.6
20260504235030 59 355 6.0 13.0 0.00 0.01 0.01 45 1011.6
20260504234851 59 326 5.0 10.0 0.00 0.01 0.01 44 1011.6
20260504234830 59 338 5.0 10.0 0.00 0.01 0.01 44 1011.6
20260504234621 59 299 6.0 10.0 0.00 0.01 0.01 44 1011.6
20260504234521 59 332 6.0 10.0 0.00 0.01 0.01 44 1011.6
20260504234433 59 319 6.0 10.0 0.00 0.01 0.01 44 1011.6
20260504234428 59 332 6.0 10.0 0.00 0.01 0.01 44 1011.5
20260504234222 59 301 5.0 10.0 0.00 0.01 0.01 44 1011.5
20260504234121 59 334 5.0 10.0 0.00 0.01 0.01 44 1011.5
20260504234021 59 350 5.0 10.0 0.00 0.01 0.01 44 1011.4
20260504233920 59 340 5.0 11.0 0.00 0.01 0.01 44 1011.4
20260504233851 59 332 5.0 11.0 0.00 0.01 0.01 45 1011.4
20260504233828 59 0 5.0 11.0 0.00 0.01 0.01 45 1011.4
20260504233620 59 340 6.0 13.0 0.00 0.01 0.01 45 1011.4
20260504233518 59 355 6.0 13.0 0.00 0.01 0.01 45 1011.4
20260504233419 59 340 6.0 13.0 0.00 0.01 0.01 44 1011.4
20260504233347 59 347 6.0 13.0 0.00 0.01 0.01 44 1011.4
20260504233320 59 291 6.0 13.0 0.00 0.01 0.01 44 1011.4
20260504233219 59 339 6.0 13.0 0.00 0.01 0.01 44 1011.4
20260504233118 59 355 7.0 13.0 0.00 0.01 0.01 44 1011.4
20260504233019 59 294 7.0 13.0 0.00 0.01 0.01 44 1011.5
20260504232913 59 333 7.0 13.0 0.00 0.01 0.01 44 1011.5
20260504232846 59 350 7.0 13.0 0.00 0.01 0.01 45 1011.5
20260504232814 59 349 7.0 13.0 0.00 0.01 0.01 45 1011.5
20260504232711 59 347 8.0 14.0 0.00 0.01 0.01 44 1011.5
20260504232619 59 321 8.0 15.0 0.00 0.01 0.01 44 1011.5
20260504232405 59 344 8.0 15.0 0.00 0.01 0.01 44 1011.4
20260504232346 59 350 9.0 15.0 0.00 0.01 0.01 44 1011.4
20260504232312 59 324 9.0 15.0 0.00 0.01 0.01 44 1011.4
20260504232105 59 332 9.0 15.0 0.00 0.01 0.01 44 1011.4
20260504232005 59 351 9.0 15.0 0.00 0.01 0.01 44 1011.3
20260504231918 59 339 9.0 15.0 0.00 0.01 0.01 44 1011.4
20260504231914 59 355 9.0 15.0 0.00 0.01 0.01 44 1011.3
20260504231704 59 319 9.0 15.0 0.00 0.01 0.01 44 1011.3
20260504231613 59 333 9.0 14.0 0.00 0.01 0.01 44 1011.3
20260504231404 59 308 9.0 14.0 0.00 0.01 0.01 45 1011.4
20260504231347 59 293 9.0 14.0 0.00 0.01 0.01 45 1011.4
20260504231305 59 328 9.0 14.0 0.00 0.01 0.01 45 1011.4
20260504231201 59 321 9.0 14.0 0.00 0.01 0.01 45 1011.4
20260504231101 59 306 9.0 14.0 0.00 0.01 0.01 44 1011.5
20260504231002 59 298 10.0 14.0 0.00 0.01 0.01 44 1011.5
20260504230914 59 296 10.0 17.0 0.00 0.01 0.01 44 1011.5
20260504230909 59 297 10.0 17.0 0.00 0.01 0.01 44 1011.4
20260504230700 59 319 10.0 17.0 0.00 0.01 0.01 44 1011.4
20260504230600 59 291 10.0 19.0 0.00 0.01 0.01 44 1011.3
20260504230509 59 347 10.0 19.0 0.00 0.01 0.01 44 1011.3
20260504230347 59 317 10.0 19.0 0.00 0.01 0.01 44 1011.3
20260504230300 59 322 10.0 19.0 0.00 0.01 0.01 43 1011.3
20260504230209 59 319 11.0 19.0 0.00 0.01 0.01 43 1011.3
20260504225959 59 310 11.0 19.0 0.00 0.01 0.01 43 1011.1
20260504225858 58 324 11.0 19.0 0.00 0.01 0.01 44 1011.1
20260504225847 58 5 11.0 19.0 0.00 0.01 0.01 44 1011.1
20260504225758 58 343 11.0 19.0 0.00 0.01 0.01 43 1011.1
20260504225659 58 300 11.0 19.0 0.00 0.01 0.01 45 1011.3
20260504225558 58 312 11.0 18.0 0.00 0.01 0.01 45 1011.3
20260504225500 58 319 11.0 18.0 0.00 0.01 0.01 45 1011.4
20260504225359 58 296 11.0 18.0 0.00 0.01 0.01 44 1011.3
20260504225347 58 292 11.0 18.0 0.00 0.01 0.01 44 1011.3
20260504225259 58 355 11.0 18.0 0.00 0.01 0.01 44 1011.3
20260504225158 58 319 11.0 18.0 0.00 0.01 0.01 44 1011.3
20260504225107 58 297 11.0 18.0 0.00 0.01 0.01 44 1011.3
20260504224912 59 324 10.0 17.0 0.00 0.01 0.01 43 1011.1
20260504224906 58 318 10.0 17.0 0.00 0.01 0.01 43 1011.1
20260504224700 58 293 9.0 16.0 0.00 0.01 0.01 44 1011.3
20260504224605 58 313 9.0 16.0 0.00 0.01 0.01 45 1011.3
20260504224410 59 5 10.0 16.0 0.00 0.01 0.01 43 1011.3
20260504224406 58 338 10.0 16.0 0.00 0.01 0.01 43 1011.4
20260504224158 59 355 10.0 17.0 0.00 0.01 0.01 43 1011.4
20260504224055 58 296 10.0 17.0 0.00 0.01 0.01 44 1011.5
20260504223955 59 320 10.0 17.0 0.00 0.01 0.01 43 1011.5
20260504223855 59 347 10.0 17.0 0.00 0.01 0.01 43 1011.6
20260504223846 59 311 10.0 17.0 0.00 0.01 0.01 43 1011.6
20260504223755 59 269 10.0 17.0 0.00 0.01 0.01 44 1011.6
20260504223655 59 313 9.0 17.0 0.00 0.01 0.01 44 1011.6
20260504223555 59 331 9.0 17.0 0.00 0.01 0.01 44 1011.7
20260504223455 59 348 8.0 17.0 0.00 0.01 0.01 44 1011.7
20260504223354 59 319 8.0 17.0 0.00 0.01 0.01 44 1011.7
20260504223347 59 317 7.0 17.0 0.00 0.01 0.01 44 1011.7
20260504223254 59 311 7.0 16.0 0.00 0.01 0.01 45 1011.7
20260504223155 59 315 6.0 15.0 0.00 0.01 0.01 45 1011.6
20260504223054 59 322 6.0 15.0 0.00 0.01 0.01 45 1011.6
20260504222954 59 313 5.0 10.0 0.00 0.01 0.01 46 1011.6
20260504222854 59 332 5.0 10.0 0.00 0.01 0.01 46 1011.6
20260504222846 58 355 4.0 10.0 0.00 0.01 0.01 46 1011.6
20260504222755 58 334 4.0 10.0 0.00 0.01 0.01 46 1011.6
20260504222655 58 344 4.0 10.0 0.00 0.01 0.01 45 1011.6
20260504222555 58 311 4.0 10.0 0.00 0.01 0.01 45 1011.7
20260504222454 58 299 4.0 10.0 0.00 0.01 0.01 50 1011.6
20260504222405 58 26 4.0 10.0 0.00 0.01 0.01 50 1011.6
20260504222401 58 40 5.0 10.0 0.00 0.01 0.01 50 1011.7
20260504222148 58 5 5.0 12.0 0.00 0.01 0.01 49 1011.7
20260504222056 58 348 6.0 16.0 0.00 0.01 0.01 50 1011.7
20260504221851 58 321 7.0 16.0 0.00 0.01 0.01 47 1011.7
20260504221847 58 0 8.0 16.0 0.00 0.01 0.01 47 1011.7
20260504221749 59 9 8.0 16.0 0.00 0.01 0.01 47 1011.7
20260504221642 59 25 8.0 16.0 0.00 0.01 0.01 47 1011.7
20260504221551 59 355 9.0 16.0 0.00 0.01 0.01 46 1011.6
20260504221347 59 5 9.0 16.0 0.00 0.01 0.01 46 1011.5
20260504221342 59 316 9.0 16.0 0.00 0.01 0.01 46 1011.5
20260504221243 59 24 9.0 16.0 0.00 0.01 0.01 45 1011.5
20260504221143 59 0 9.0 16.0 0.00 0.01 0.01 45 1011.4
20260504221043 59 350 9.0 16.0 0.00 0.01 0.01 45 1011.3
20260504220939 59 327 10.0 18.0 0.00 0.01 0.01 43 1011.3
20260504220846 59 311 10.0 18.0 0.00 0.01 0.01 42 1011.3
20260504220838 59 286 10.0 18.0 0.00 0.01 0.01 42 1011.3
20260504220739 59 339 10.0 18.0 0.00 0.01 0.01 42 1011.3
20260504220639 60 332 11.0 18.0 0.00 0.01 0.01 41 1011.3
20260504220539 60 298 11.0 19.0 0.00 0.01 0.01 41 1011.3
20260504220439 60 294 11.0 19.0 0.00 0.01 0.01 41 1011.3
20260504220338 60 327 11.0 19.0 0.00 0.01 0.01 41 1011.1
20260504220239 60 346 12.0 19.0 0.00 0.01 0.01 41 1011.1
20260504220139 60 343 11.0 19.0 0.00 0.01 0.01 41 1011.0
20260504220045 60 242 12.0 19.0 0.00 0.01 0.01 41 1011.0
20260504215847 60 312 12.0 19.0 0.00 0.01 0.01 41 1010.9
20260504215839 60 340 12.0 19.0 0.00 0.01 0.01 41 1010.9
20260504215739 60 0 11.0 19.0 0.00 0.01 0.01 41 1010.8
20260504215639 60 332 11.0 19.0 0.00 0.01 0.01 40 1010.9
20260504215539 60 51 11.0 19.0 0.00 0.01 0.01 40 1010.8
20260504215438 60 11 11.0 19.0 0.00 0.01 0.01 41 1010.8
20260504215346 60 355 11.0 24.0 0.00 0.01 0.01 40 1010.7
20260504215338 61 5 11.0 24.0 0.00 0.01 0.01 40 1010.7
20260504215239 61 24 11.0 24.0 0.00 0.01 0.01 40 1010.7
20260504215139 61 41 11.0 24.0 0.00 0.01 0.01 40 1010.5
20260504215053 61 35 12.0 24.0 0.00 0.01 0.01 39 1010.5
20260504215046 61 355 12.0 24.0 0.00 0.01 0.01 39 1010.4
20260504214736 61 306 13.0 24.0 0.00 0.01 0.01 39 1010.4
20260504214634 61 20 13.0 24.0 0.00 0.01 0.01 38 1010.4
20260504214600 61 303 13.0 24.0 0.00 0.01 0.01 38 1010.4
20260504214334 62 324 13.0 24.0 0.00 0.01 0.01 38 1010.4
20260504214235 62 355 13.0 24.0 0.00 0.01 0.01 37 1010.3
20260504214141 62 315 13.0 24.0 0.00 0.01 0.01 38 1010.3
20260504213935 62 344 12.0 24.0 0.00 0.01 0.01 36 1010.3
20260504213846 62 0 12.0 24.0 0.00 0.01 0.01 36 1010.2
20260504213835 62 5 12.0 24.0 0.00 0.01 0.01 36 1010.2
20260504213734 63 316 12.0 24.0 0.00 0.01 0.01 36 1010.3
20260504213634 63 34 11.0 24.0 0.00 0.01 0.01 37 1010.2
20260504213542 63 337 12.0 24.0 0.00 0.01 0.01 36 1010.2
20260504213347 63 349 11.0 22.0 0.00 0.01 0.01 36 1010.1
20260504213335 63 5 11.0 22.0 0.00 0.01 0.01 36 1010.1
20260504213234 63 71 12.0 22.0 0.00 0.01 0.01 35 1010.2
20260504213131 64 355 11.0 23.0 0.00 0.01 0.01 36 1010.1
20260504213101 64 347 11.0 23.0 0.00 0.01 0.01 35 1010.2
20260504212831 65 341 11.0 23.0 0.00 0.01 0.01 33 1010.2
20260504212730 65 15 10.0 23.0 0.00 0.01 0.01 33 1010.3
20260504212631 65 355 9.0 23.0 0.00 0.01 0.01 32 1010.3
20260504212531 66 332 9.0 23.0 0.00 0.01 0.01 33 1010.3
20260504212454 66 327 8.0 23.0 0.00 0.01 0.01 33 1010.3
20260504212336 66 13 7.0 23.0 0.00 0.01 0.01 32 1010.3
20260504212130 66 14 6.0 14.0 0.00 0.01 0.01 29 1010.1
20260504212030 66 65 6.0 14.0 0.00 0.01 0.01 30 1010.1
20260504211931 66 54 6.0 14.0 0.00 0.01 0.01 31 1010.1
20260504211848 66 77 6.0 10.0 0.00 0.01 0.01 29 1010.0
20260504211831 66 74 6.0 10.0 0.00 0.01 0.01 29 1010.0
20260504211731 66 53 5.0 10.0 0.00 0.01 0.01 31 1010.0
20260504211637 66 76 5.0 10.0 0.00 0.01 0.01 30 1010.0